Terug naar catalogus

STARLINK-2381

ActiefCommunicatieVLEO
NORAD 47800·PAYLOAD·🇺🇸 United States

Gelanceerd Mar 11, 2021 vanaf Cape Canaveral Space Force Station

Loading…

Volgende Passages (komende 24 uur)

TLE

VersSource: CelesTrak SupGP

Epoch: Sep 14, 2026, 20:40 UTC

1 47800C 21018P   26257.86159722  .00021626  00000+0  69564-3 0  2579
2 47800  53.1590  78.6964 0001281  71.3145  55.6765 15.31681473    11

Volg STARLINK-2381 in realtime met AllMySat

Download on the App Store